[Date Prev][Date Next][Thread Prev][Thread Next] - [Date Index][Thread Index][Author Index]
2 Line ISS Keps 11-13
- Subject: [sarex] 2 Line ISS Keps 11-13
- From: "Dave Larsen PhD" <doc@xxxxxxxxxxx>
- Date: Sat, 12 Nov 2005 19:01:28 -0800
ISS
1 25544U 98067A 05316.99005253 .00012660 00000-0 98544-4 0 7423
2 25544 051.6445 218.2193 0008339 274.7953 197.4014 15.72132331399109
----
Via the sarex mailing list at AMSAT.ORG courtesy of AMSAT-NA.
To unsubscribe, send "unsubscribe sarex" to Majordomo@amsat.org
AMSAT Home